Regional Weather Roundup
Issued by NWS

Home | Current Version | Previous Version | Text Only | Print | Product List | Glossary On
Versions: 1 2 3 4 5 6 7 8 9 10 11 12 13 14 15 16 17 18 19 20 21 22 23 24 25 26 27 28 29 30 31 32 33 34 35 36 37 38 39 40 41 42 43 44 45 46 47 48 49 50
000
ASUS44 KEWX 031611
RWRTX
SOUTH TEXAS REGIONAL WEATHER ROUNDUP
NATIONAL WEATHER SERVICE AUSTIN/SAN ANTONIO TX
1100 AM CDT MON AUG 03 2015

NOTE: "FAIR" INDICATED FEW OR NO CLOUDS BELOW 12,000 FEET WITH NO
SIGNIFICANT WEATHER AND/OR OBSTRUCTIONS TO VISIBILITY.

* - THESE STATIONS ARE NOT NWS OR FAA STATIONS...AND ARE NOT SUBJECT
    TO NWS AND FAA QUALITY CONTROL.

TXZ171-172-183>190-031700-
TEXAS HILL COUNTRY AND EDWARDS PLATEAU

CITY           SKY/WX    TMP DP  RH WIND       PRES   REMARKS
JUNCTION       SUNNY     89  63  41 VRB3      29.98S HX  90
*LLANO         SUNNY     90  63  40 CALM      29.99S HX  90
BURNET         SUNNY     88  64  44 SE6       29.99S
*HORSESHOE BAY SUNNY     90  64  42 S3        29.96S HX  92
*KERRVILLE     SUNNY     84  65  51 CALM      29.99S
*FREDERICKSBRG SUNNY     85  62  46 SW7       29.99S
*ROCKSPRINGS   SUNNY     88  64  45 SE5       30.04R
*BOERNE STAGE  SUNNY     86  63  45 E5        29.99R
*CASTROVILLE   SUNNY     89  65  43 CALM      29.96S HX  91
HONDO          SUNNY     87  67  51 CALM      29.96S HX  90
*UVALDE        SUNNY     86  69  57 CALM      29.95S HX  90
DEL RIO        SUNNY     90  66  45 S13       29.92S HX  92
LAUGHLIN AFB   NOT AVBL
CARRIZO SPRGS  SUNNY     86  72  62 CALM      29.91S HX  92
$$

TXZ173-191>194-202-209-217>225-228-031700-
CENTRAL AND SOUTH CENTRAL TEXAS

CITY           SKY/WX    TMP DP  RH WIND       PRES   REMARKS
GEORGETOWN     SUNNY     90  63  40 S6        29.94R HX  90
AUSTIN/BERGSTM MOSUNNY   89  64  43 SW6       29.93S HX  90
AUSTIN/MABRY   SUNNY     90  63  40 VRB3      29.95S HX  91
*AUSTIN/EXEC   SUNNY     90  64  43 CALM      29.95R HX  91
*LAGO VISTA    SUNNY     88  65  45 S5        29.98S HX  90
SAN MARCOS     NOT AVBL
NEW BRAUNFELS  SUNNY     91  65  41 S6        29.92S HX  93
RANDOLPH AFB   SUNNY     88  65  46 VRB2      29.94S HX  90
PT SAN ANTONIO SUNNY     89  68  50 SW3       29.93S HX  92
SAN ANTONIO    SUNNY     89  65  44 VRB5      29.95R HX  91
STINSON FIELD  SUNNY     89  69  51 VRB3      29.91S HX  93
*PLEASANTON    SUNNY     89  70  53 CALM      29.93S HX  93
*LA GRANGE     MOSUNNY   86  75  68 CALM      29.92S HX  94
*GIDDINGS      SUNNY     87  68  52 CALM      29.98R HX  90
*GONZALES      CLOUDY    87  73  63 CALM      29.92S HX  94
$$

TXZ163>164-176>182-195>201-210>213-226-227-235-031700-
SOUTHEAST TEXAS

CITY           SKY/WX    TMP DP  RH WIND       PRES   REMARKS
COLLEGE STN    SUNNY     88  69  53 SE5       29.94R HX  92
*BRYAN         SUNNY     89  68  48 CALM      29.95S HX  93
*CALDWELL      SUNNY     88  64  45 CALM      29.97S
*CROCKETT      CLOUDY    91  70  49 W3        29.98R HX  97
*BRENHAM       SUNNY     87  74  65 CALM      29.95R HX  94
HUNTSVILLE     SUNNY     89  68  49 VRB3      29.95R HX  93
CONROE         SUNNY     88  67  49 VRB7      29.95R HX  91
HOUSTON BUSH   MOSUNNY   90  70  51 E3        29.93R HX  95
HOUSTON HOBBY  MOSUNNY   90  70  51 CALM      29.92R HX  95
*HOUSTON SW AP SUNNY     88  72  58 NW3       29.93S HX  94
PEARLAND       SUNNY     89  70  53 CALM      29.94S HX  94
HOUSTON HOOKS  SUNNY     89  73  59 E3        29.94R HX  97
ELLINGTON FLD  MOSUNNY   91  72  52 CALM      29.94S HX  98
SUGAR LAND     MOSUNNY   90  72  55 VRB3      29.93R HX  97
*HOUSTON EXEC  SUNNY     86  72  62 W3        29.95R HX  92
*CLEVELAND MUN SUNNY     89  74  62 NW3       29.95S HX  97
*WHARTON       MOSUNNY   87  73  62 CALM      29.94R HX  93
*COLUMBUS      FAIR      85  72  66 CALM      29.93S HX  90
*EAGLE LAKE    MOSUNNY   87  71  59 SW3       29.93S HX  92
$$

TXZ214>216-236>238-031700-
THE UPPER TEXAS COAST

CITY           SKY/WX    TMP DP  RH WIND       PRES   REMARKS
*ORANGE        SUNNY     90  63  40 CALM      29.94S HX  91
PORT ARTHUR    MOSUNNY   91  71  51 CALM      29.92S HX  97
GALVESTON      MOSUNNY   90  71  53 VRB3      29.93S HX  96
ANGLETON       MOSUNNY   88  73  61 CALM      29.93R HX  95
*BAY CITY      PTSUNNY   88  75  64 CALM      29.93R HX  98
PALACIOS       MOSUNNY   89  74  60 SW6       29.93R HX  98
$$

TXZ229>234-239>247-031700-
TEXAS COASTAL BEND AND RIO GRANDE PLAINS

CITY           SKY/WX    TMP DP  RH WIND       PRES   REMARKS
VICTORIA       PTSUNNY   87  74  64 W8        29.93R HX  95
*BEEVILLE      PTSUNNY   84  77  79 SW3       29.93R HX  94
ROCKPORT       MOSUNNY   89  74  60 SE10      29.91S HX  98
*PORT ARANSAS  SUNNY     86  77  74 S8        29.92R HX  98
*PORT LAVACA   MOSUNNY   86  74  67 SW5       29.93R HX  94
*INGLESIDE     SUNNY     90  73  57 S9        29.91S HX  97
CORPUS CHRISTI PTSUNNY   88  70  55 S8        29.90F HX  93
CORPUS NAS     MOSUNNY   87  76  69 SE14      29.91R HX  97
*ROBSTOWN      MOSUNNY   90  73  57 S6        29.91S HX  98
ALICE          SUNNY     90  74  59 VRB7      29.90S HX  99
KINGSVILLE NAS PTSUNNY   87  76  69 S9        29.90F HX  97
COTULLA        SUNNY     87  70  56 E6        29.91F HX  92
*FAITH RANCH   SUNNY     91  66  43 CALM      29.92S HX  94
LAREDO         SUNNY     89  72  57 E6        29.92S HX  96
$$

TXZ248>255-031700-
DEEP SOUTH TEXAS

CITY           SKY/WX    TMP DP  RH WIND       PRES   REMARKS
BROWNSVILLE    SUNNY     90  71  53 S20G26    29.90S HX  96
PORT ISABEL    MOSUNNY   91  73  55 S14G26    29.89S HX  99
*SOUTH PADRE   SUNNY     86  77  74 SE14      29.91R HX  97
HARLINGEN      SUNNY     92  74  55 S17       29.88S HX 101
*HEBBRONVILLE    N/A     85  73  66 E6        29.92S HX  92
MCALLEN        SUNNY     93  70  46 S10       29.89S HX  99
*WESLACO       SUNNY     91  70  49 S15       29.88S HX  96
FALFURRIAS     MOSUNNY   88  74  63 SE9       29.89F HX  97
EDINBURG       SUNNY     91  70  48 S10       29.89S HX  96
*ZAPATA        SUNNY     89  71  55 SE6       29.89S HX  95
$$

TXZ213>215-236>238-242>244-246-247-251-254-255-031700-
CMAN STATIONS

STATION/POSITION TIME  TEMP    WIND        PRES    WAVE
                       AIR SEA DIR/SP/G            HT/PER
                 (UTC) (F)     (DEG/KT/KT) (MB)    (FT/S)
$$

GMZ080-GMZ150>470-031700-
OFFSHORE BUOY REPORTS

STATION/POSITION TIME  TEMP    WIND        PRES    WAVE
                       AIR SEA DIR/SP/G            HT/PER
                 (UTC) (F)     (DEG/KT/KT) (MB)    (FT/S)
$$


USA.gov is the U.S. government's official web portal to all federal, state and local government web resources and services.